Skip Page Navigation
NASA JPL Caltech
NASA Logo - Jet Propulsion Laboratory + View the NASA Portal
+ Center for Near-Earth Object Studies
JPL Home Earth Solar System Stars & Galaxies Technology
JPL Solar System Dynamics
BODIES ORBITS EPHEMERIDES TOOLS PHYSICAL DATA DISCOVERY FAQ SITE MAP
JPL Small-Body Database Browser
Search: [ help ]  
101584 (1999 BP10)
Classification: Main-belt Asteroid          SPK-ID: 2101584
Ephemeris | Orbit Diagram | Orbital Elements | Mission Design | Physical Parameters | Discovery Circumstances | Close-Approach Data ]

[ show orbit diagram ]
Orbital Elements at Epoch 2459000.5 (2020-May-31.0) TDB
Reference: JPL 20 (heliocentric ecliptic J2000)
 Element Value Uncertainty (1-sigma)   Units 
e .1653976421129864 4.0896e-08  
a 2.317347911823608 7.7122e-09 au
q 1.93406403125253 9.5491e-08 au
i 2.362198890619151 5.0419e-06 deg
node 145.5696035277383 8.911e-05 deg
peri 16.20224147930131 9.0073e-05 deg
M 4.619208760397986 1.3421e-05 deg
tp 2458983.967049037270
(2020-May-14.46704904)
4.8006e-05 TDB
period 1288.5025672817
3.53
6.4322e-06
1.761e-08
d
yr
n .2793940882550797 1.3947e-09 deg/d
Q 2.700631792394685 8.9878e-09 au
  Orbit Determination Parameters
   # obs. used (total)      620  
   data-arc span      10329 days (28.28 yr)  
   first obs. used      1992-03-01  
   last obs. used      2020-06-11  
   planetary ephem.      DE431  
   SB-pert. ephem.      SB431-N16  
   condition code      0  
   norm. resid. RMS      .56246  
   source      ORB  
   producer      Otto Matic  
   solution date      2020-Nov-12 19:59:42  

Additional Information
 Earth MOID = .942493 au 
 Jupiter MOID = 2.27699 au 
 T_jup = 3.561 
[ show covariance matrix ]

Ephemeris | Orbit Diagram | Orbital Elements | Mission Design | Physical Parameters | Discovery Circumstances | Close-Approach Data ]

Physical Parameter Table
Parameter Symbol Value Units Sigma Reference Notes
absolute magnitude H 16.5   n/a MPO417512  

101584 (1999 BP10)          Discovered 1999-Jan-19 by ODAS at Caussols
Reference: 20051019/Numbers.arcLast Updated: 2005-10-26

[ show close-approach data ]
Alternate Designations
 1999 BP10 = 1992 EP33 
Ephemeris | Orbit Diagram | Orbital Elements | Mission Design | Physical Parameters | Discovery Circumstances | Close-Approach Data ]
ABOUT SSD CREDITS/AWARDS PRIVACY/COPYRIGHT GLOSSARY LINKS
FirstGov 2020-Nov-28 11:50 UT
(server date/time)  
NASA Home Page
Site Manager:   Ryan S. Park
Webmaster  Alan B. Chamberlin